Zurück zum Katalog

EZIE-B

AktivWissenschaftSSO
NORAD 63250·PAYLOAD·🇺🇸 United States

Gestartet Mar 15, 2025 von Vandenberg Space Force Base

Loading…

Nächste Überflüge (nächste 24 Stunden)

TLE

AktuellSource: Space-Track

Epoche: Sep 13, 2026, 23:17 UTC

1 63250U 25052AS  26256.97056968  .00003746  00000-0  32372-3 0  9991
2 63250  97.6761 147.7476 0002110 242.7439 117.3568 14.97805678 81954

Verfolge EZIE-B in Echtzeit mit AllMySat

Download on the App Store